Location: Remedello Sotto
(45.2500°N, 10.3667°E)
Time: 20:30:51
(UTC+00:00)

Gblst 52 Del rocket - Pass Details

Date: 03 February 2023
Orbit: 805 x 1364 km, 51.5° (Epoch: 22 March)

Event Time Altitude Azimuth Distance (km) Brightness Sun altitude
Rises 16:45:22 0° 232° (SW) 3,506 9.1 -3.7°
Reaches altitude 10° 16:47:59 10° 230° (SW) 2,507 8.1 -4.1°
Maximum altitude 16:53:44 74° 147° (SSE) 855 4.3 -5.0°
Drops below altitude 10° 16:59:12 10° 63° (ENE) 2,388 5.9 -6.0°
Enters shadow 16:59:56 - 62° (ENE) 2,664 6.1 -6.1°
